Location: Newark
(54.4000°N, 32.4500°E)
Time: 21:00:40
(UTC+00:00)

Envisat - Pass Details

Date: 22 January 2020
Orbit: 764 x 766 km, 98.1° (Epoch: 25 February)

Event Time Altitude Azimuth Distance (km) Brightness Sun altitude
Rises 04:39:24 0° 16° (NNE) 3,248 6.2 -10.7°
Reaches altitude 10° 04:41:43 10° 18° (NNE) 2,317 5.5 -10.4°
Maximum altitude 04:46:50 73° 103° (ESE) 804 3.3 -9.7°
Drops below altitude 10° 04:51:54 10° 189° (S) 2,299 5.6 -9.0°
Sets 04:54:12 0° 191° (SSW) 3,221 6.4 -8.7°
